Location: Gwatt
(46.7204°N, 7.6223°E)
Time: 08:39:13
(UTC+00:00)

Vanguard 2 - Pass Details

Date: 23 January 2021
Orbit: 552 x 2938 km, 32.9° (Epoch: 24 February)

Event Time Altitude Azimuth Distance (km) Brightness Sun altitude
Rises 20:38:34 0° 250° (WSW) 3,322 11.3 -43.8°
Enters shadow 20:40:47 - 235° (SW) 2,864 10.7 -44.1°
Reaches altitude 10° 20:41:57 10° 226° (SW) 2,712 - -44.3°
Maximum altitude 20:45:25 15° 193° (SSW) 2,721 - -44.8°
Drops below altitude 10° 20:49:41 10° 163° (SSE) 3,512 - -45.5°
Sets 20:55:17 0° 144° (SE) 5,068 - -46.4°
